User: anonymous   Login
Location: Unspecified
(0.0000°N, 0.0000°E)
Time: 04:48:05
(UTC+00:00)
Language:

Nimbus 6 - Orbit

View from above orbital plane
View from above orbital plane
View from above satellite
View from above satellite

Ground track
Ground track

The orbit data is extracted from the following two-line orbital elements,

1  7924U 75052A   18020.59124387 -.00000029 +00000-0 +30864-4 0  9998
2  7924 100.2218 265.3077 0008505 062.3653 327.3000 13.40707387084783
Epoch (UTC): 20 January 2018 14:11:23
Eccentricity: 0.0008505
inclination: 100.2218°
perigee height: 1100 km
apogee height: 1113 km
right ascension of ascending node: 265.3077°
argument of perigee: 62.3653°
revolutions per day: 13.40707387
mean anomaly at epoch: 327.3000°
orbit number at epoch: 8478

The dashed part of the orbit path shows where the satellite is in the earth's shadow,  

DLR